Aswan, Egypt

6:23 PM EET on August 31, 2016 (GMT +0200)
Aswan International

Weather History for HESN - February, 2013

Change the Weather History Date:

Monday, February 11, 2013

  Actual Average Record
Temperature  
Mean Temperature 65 °F -  
Max Temperature 78 °F 78 °F 82 °F (2014)
Min Temperature 52 °F 54 °F 44 °F (2006)
Growing Degree Days 15 (Base 50)    
Moisture  
Dew Point 32 °F    
Average Humidity 30    
Maximum Humidity 47    
Minimum Humidity 9    
Precipitation  
Precipitation 0.00 in 0.00 in - ()
Sea Level Pressure  
Sea Level Pressure 30.00 in    
Wind  
Wind Speed 8 mph ()    
Max Wind Speed 15 mph    
Max Gust Speed -    
Visibility 6.0 miles    
Events      
Averages and records for this station are not official NWS values.
T = Trace of Precipitation, MM = Missing Value Source: Averaged Metar Reports

Daily Weather History Graph

Daily Weather History Graph

Search for Another Location

Airport or City:

Trip Planner

Search our weather history database for the weather conditions in past years. The results will help you decide how hot, cold, wet, or windy it might be!

Date:

Astronomy

Feb. 11, 2013 Rise Set
Actual Time 6:24 AM EET 5:41 PM EET
Civil Twilight 6:01 AM EET 6:04 PM EET
Nautical Twilight 5:34 AM EET 6:31 PM EET
Astronomical Twilight 5:07 AM EET 6:58 PM EET
Moon 6:50 AM EET (2/11) 6:59 PM EET (2/11)
Length of Visible Light 12h 03m
Length of Day
11h 17m
New Moon, 2% of the Moon is Illuminated
Feb 11
New Moon
Feb 17
First Quarter
Feb 25
Full
Mar 4
Last Quarter
Mar 11
New

Hourly Weather History & Observations

Time (EET) Temp. Dew Point Humidity Pressure Visibility Wind Dir Wind Speed Gust Speed Precip Events Conditions
12:00 AM 59.0 °F 33.8 °F 39% 30.01 in - North 9.2 mph - N/A   Clear
1:00 AM 59.0 °F 33.8 °F 39% 29.98 in - North 9.2 mph - N/A   Clear
2:00 AM 58 °F 33 °F 26% 29.99 in 6 mi NNW 5.8 mph - -  
2:00 AM 57.2 °F 32.0 °F 38% 29.98 in - NNW 5.8 mph - N/A   Clear
3:00 AM 57.2 °F 32.0 °F 38% 29.98 in - NNW 5.8 mph - N/A   Clear
4:00 AM 55.4 °F 32.0 °F 41% 29.98 in - North 5.8 mph - N/A   Clear
5:00 AM 53.6 °F 33.8 °F 47% 29.98 in - North 4.6 mph - N/A   Clear
6:00 AM 53.6 °F 33.8 °F 47% 30.01 in - NNW 5.8 mph - N/A   Clear
7:00 AM 53.6 °F 33.8 °F 47% 30.01 in - Calm Calm - N/A   Clear
8:00 AM 55 °F 34 °F 32% 30.04 in 6 mi NNW 5.8 mph - -  
8:00 AM 55.4 °F 33.8 °F 44% 30.04 in - NNW 5.8 mph - N/A   Clear
9:00 AM 59.0 °F 35.6 °F 42% 30.06 in - North 6.9 mph - N/A   Clear
10:00 AM 66.2 °F 37.4 °F 35% 30.04 in - North 12.7 mph - N/A   Clear
11:00 AM 69.8 °F 39.2 °F 33% 30.04 in - North 13.8 mph - N/A   Clear
12:00 PM 73.4 °F 37.4 °F 27% 30.01 in - North 13.8 mph - N/A   Clear
1:00 PM 75.2 °F 33.8 °F 22% 29.98 in - NNE 15.0 mph - N/A   Clear
2:00 PM 77 °F 30 °F 9% 29.94 in 6 mi NNE 15.0 mph - -  
2:00 PM 77.0 °F 30.2 °F 18% 29.95 in - NNE 15.0 mph - N/A   Clear
3:00 PM 78.8 °F 30.2 °F 17% 29.95 in - North 12.7 mph - N/A   Clear
4:00 PM 77.0 °F 26.6 °F 16% 29.95 in - NNW 12.7 mph - N/A   Clear
5:00 PM 75.2 °F 23.0 °F 14% 29.98 in - North 15.0 mph - N/A   Clear
6:00 PM 73.4 °F 30.2 °F 20% 29.98 in - North 13.8 mph - N/A   Clear
7:00 PM 69.8 °F 30.2 °F 23% 30.01 in - North 11.5 mph - N/A   Clear
8:00 PM 68 °F 30 °F 14% 30.00 in 6 mi North 12.7 mph - -  
8:00 PM 68.0 °F 30.2 °F 24% 30.01 in - North 12.7 mph - N/A   Clear
9:00 PM 66.2 °F 28.4 °F 24% 30.01 in - North 11.5 mph - N/A   Clear
10:00 PM 64.4 °F 26.6 °F 24% 30.04 in - North 10.4 mph - N/A   Clear
11:00 PM 60.8 °F 26.6 °F 27% 30.04 in - North 11.5 mph - N/A   Clear